RH
81 77 88 78 88 99 98 86 91 74 87 86 93 97 99 99 99 98 98 99 97 89 75 68 69 69 71 75 77 81 82 85 86 87 88 89 91 91 91 90 87 88 86 86
95 80 85 85 81 85 88 82 83 78 82 95 99 99 99 99 99 98 98 98 95 89 73 74 76 78 83 85 85 88 90 88 85 89 91 92 92 92 92 91 91 88 86 86
89 85 94 97 88 82 75 98 88 92 90 97 98 98 99 99 99 97 98 98 95 91 95 95 93 92 94 91 91 92 92 89 88 91 93 93 91 91 89 92 87 81 86 89
93 97 95 84 96 93 95 98 98 97 98 98 98 99 99 99 98 98 98 98 97 98 98 95 94 94 92 92 97 94 92 90 90 91 93 88 87 93 95 88 85 84 85 81
96 89 75 93 95 96 92 96 98 97 98 98 98 98 98 98 98 98 99 96 95 98 100 99 96 97 97 93 90 89 84 89 87 90 92 89 91 88 87 90 88 84 74 74
98 97 96 88 89 94 98 96 98 93 95 92 98 98 97 93 91 92 92 98 99 98 96 94 95 97 96 90 94 85 81 82 85 88 89 89 89 89 87 87 79 74 72 74
96 93 92 98 98 98 94 87 99 91 93 94 94 91 88 99 100 97 98 98 97 95 96 97 96 97 90 90 88 79 80 79 82 83 86 87 89 88 87 88 86 91 84 83
97 99 86 93 94 98 89 93 89 91 96 97 95 96 96 98 98 99 99 100 100 99 99 97 95 98 95 93 81 78 82 82 83 84 81 72 82 85 84 91 96 94 92 87
92 84 94 90 94 97 89 94 94 93 96 97 99 97 96 99 97 99 100 99 100 100 100 90 94 98 96 87 82 83 84 87 89 84 76 75 85 90 90 90 95 92 87 87
94 90 94 95 97 91 85 86 94 94 96 97 92 94 95 97 97 98 98 98 100 100 97 93 95 97 96 92 82 89 92 92 90 93 89 86 80 83 90 95 95 88 87 86
94 96 98 98 79 74 91 94 93 89 82 89 94 90 96 98 97 98 98 99 100 100 100 94 94 95 95 93 89 91 91 94 93 89 93 93 88 90 90 88 89 89 92 83
90 83 91 86 87 89 88 81 74 86 87 87 95 97 97 97 96 98 98 99 98 97 100 95 98 97 95 95 90 96 92 87 94 90 94 92 93 90 78 76 67 65 66 66
96 95 94 88 94 62 73 77 87 91 95 96 100 98 98 97 97 90 95 98 100 95 96 98 98 98 94 96 98 94 98 91 92 87 88 93 92 90 92 80 70 69 68 67
83 96 96 96 91 78 81 82 88 98 100 99 99 98 97 97 96 95 96 94 98 100 98 99 100 97 92 98 100 98 96 96 94 94 95 94 95 94 94 94 90 85 72 71
98 92 87 88 83 87 90 92 96 99 100 100 99 98 100 100 99 98 95 95 95 99 96 100 100 94 93 100 100 99 98 97 94 95 95 93 92 94 93 90 90 88 81 74
98 96 96 96 96 92 94 98 95 98 100 100 100 98 100 99 98 97 96 96 100 98 96 98 98 93 93 99 98 100 98 89 85 88 91 91 93 92 92 90 91 89 86 83
97 96 96 97 96 96 96 96 96 96 97 96 95 96 98 98 98 96 95 95 96 97 96 98 96 93 92 95 99 99 98 96 92 85 92 90 92 93 90 91 92 93 88 81
98 97 96 96 96 95 95 96 96 94 96 96 96 98 98 99 100 98 97 96 94 93 91 92 93 92 96 98 97 97 97 96 96 94 92 92 94 93 94 94 92 94 90 85
97 96 96 96 96 96 95 95 94 94 97 99 98 98 100 100 100 99 98 96 95 96 91 85 83 85 96 92 75 83 92 94 93 93 93 92 94 93 93 93 93 92 93 91
99 96 96 96 95 96 98 98 98 98 97 97 96 96 97 97 97 97 96 99 95 93 87 86 86 86 91 88 80 85 88 93 95 94 96 95 96 96 94 90 92 95 94 94
96 95 95 94 96 93 94 94 90 89 94 91 94 97 99 96 95 90 90 91 87 86 79 72 79 84 81 80 84 95 93 96 97 94 92 94 96 95 95 94 95 95 95 94
93 92 91 92 93 93 93 93 92 90 90 90 84 82 87 79 76 76 68 84 74 75 68 78 86 82 74 73 94 94 95 91 90 92 95 94 95 95 95 95 95 95 95 95
93 92 93 93 94 94 94 93 92 91 91 88 86 81 81 76 73 88 91 68 64 71 72 83 79 74 74 88 93 90 93 95 94 93 94 94 95 95 95 95 95 96 96 95
93 93 94 91 92 90 90 89 91 92 89 85 80 66 76 83 80 67 62 71 78 77 74 79 77 77 76 90 90 92 92 93 93 93 93 93 95 96 96 95 95 95 96 95
94 94 94 93 89 86 88 88 92 86 75 75 64 65 68 69 72 63 65 68 83 78 77 87 84 85 85 89 90 93 92 93 94 94 95 95 96 96 96 96 96 96 96 96
92 90 94 88 84 80 76 86 80 80 78 77 73 72 70 61 63 64 61 69 76 81 84 82 79 83 88 89 92 91 92 92 93 95 94 95 96 96 96 96 96 95 95 96
80 77 90 78 61 64 79 88 89 92 83 82 86 76 69 69 69 73 78 73 78 82 81 78 83 91 87 90 88 88 91 92 93 94 94 95 95 95 95 95 95 95 95 96
Wind_Speed
8 6 5 8 7 10 12 12 13 16 11 5 15 10 5 4 6 5 5 5 5 4 4 4 5 5 5 5 5 5 5 5 5 5 6 6 6 6 6 6 6 6 6 6
7 9 11 20 12 11 19 18 17 20 20 4 8 6 3 3 3 5 5 4 4 3 5 4 4 4 4 5 5 5 5 6 5 6 6 6 6 6 6 6 6 6 7 7
20 4 6 16 17 18 15 1 8 14 4 6 5 6 4 3 3 4 6 5 2 2 1 1 0 1 2 4 4 5 5 5 6 5 6 5 6 6 7 6 6 8 8 7
11 1 16 5 3 4 3 2 3 10 7 4 4 4 5 2 4 4 3 2 2 2 3 3 1 3 2 3 3 4 5 5 5 5 6 6 7 7 6 6 8 8 7 8
6 8 11 3 3 4 6 5 1 5 5 3 4 4 3 4 3 4 3 2 2 1 1 2 3 3 2 4 5 5 5 5 5 5 7 7 7 7 7 7 7 7 8 8
2 6 6 2 2 4 1 2 5 4 4 4 5 3 3 6 4 3 1 1 2 2 2 1 3 3 2 4 4 5 5 7 6 7 7 7 8 8 7 6 8 7 9 9
7 9 4 3 3 2 1 3 3 5 4 5 5 5 4 1 3 2 2 4 5 3 1 3 4 4 5 5 6 6 6 8 7 7 7 7 7 6 6 7 8 8 10 10
1 3 11 1 2 3 3 4 6 3 2 3 2 0 2 1 2 4 4 4 2 3 3 5 4 2 5 6 6 7 7 7 7 8 7 7 7 7 8 7 7 8 8 9
4 4 1 1 2 4 6 6 2 4 3 2 2 1 2 2 0 1 1 3 2 1 4 6 5 2 6 5 7 6 7 8 8 8 9 8 8 8 6 6 6 7 7 8
3 3 4 7 4 6 9 7 4 4 6 5 3 3 2 3 1 1 3 3 1 2 4 6 4 4 6 7 7 6 7 8 7 7 8 6 6 6 6 6 7 8 8 9
6 2 1 2 4 6 3 4 4 4 4 4 4 2 4 3 1 2 3 3 1 3 4 7 6 7 6 6 6 6 7 7 7 6 7 7 7 7 6 8 10 9 7 7
7 7 5 9 11 5 8 6 5 4 2 3 4 4 3 2 2 2 3 3 4 5 4 7 6 7 7 4 5 5 6 6 5 6 6 6 6 8 14 15 20 22 21 15
4 1 2 12 10 7 6 6 4 4 2 4 1 3 2 2 1 3 2 3 4 7 7 7 7 7 6 4 3 5 5 8 6 9 7 7 7 7 8 10 18 18 19 19
5 6 2 2 6 4 7 5 5 4 3 3 3 3 2 1 3 3 4 5 5 5 6 5 5 8 7 4 3 5 6 14 7 6 7 7 7 7 6 7 9 8 13 17
1 2 3 9 7 6 2 2 3 3 2 1 1 3 2 3 4 5 5 5 5 5 6 4 5 9 6 3 4 6 5 5 7 7 7 9 8 5 6 7 8 8 8 12
2 5 7 7 6 5 3 1 5 5 3 1 3 3 4 5 5 6 5 4 2 5 7 5 6 6 6 4 6 4 6 16 13 7 7 7 5 6 6 7 7 7 7 8
4 3 0 0 5 4 3 2 2 1 0 3 5 3 3 4 3 4 6 4 4 7 7 5 7 7 6 6 5 5 6 7 15 8 6 7 6 6 7 7 7 6 8 9
3 2 3 3 5 7 6 5 4 3 2 2 5 2 2 3 4 6 7 7 7 8 6 7 6 8 6 5 6 6 6 7 7 7 7 7 6 6 6 6 7 7 8 9
2 3 4 4 4 3 1 1 1 2 1 2 4 4 2 3 4 5 5 6 7 6 6 9 17 14 6 9 14 7 7 8 9 8 7 11 6 7 6 7 7 7 7 7
5 5 6 5 5 4 3 4 3 3 3 3 4 5 5 4 4 4 5 5 6 6 9 10 11 8 6 11 18 7 9 9 8 8 4 6 6 6 7 11 9 6 7 7
7 7 7 7 5 6 5 5 4 4 4 3 4 4 4 5 5 5 6 6 5 9 12 16 10 7 8 14 14 7 7 5 4 7 8 8 9 7 7 7 7 6 7 7
6 4 3 3 2 3 3 3 3 4 4 4 6 6 6 8 7 7 8 8 6 17 11 8 6 15 14 22 7 5 5 7 8 8 8 8 7 7 7 7 7 6 6 6
4 4 2 2 2 2 3 4 5 5 5 7 7 7 6 5 5 7 8 8 9 13 11 7 17 24 25 9 5 7 7 8 9 8 8 8 8 7 7 6 6 6 6 6
4 5 4 2 2 2 4 5 5 4 6 7 7 7 6 5 5 6 8 14 20 17 11 12 17 24 24 8 8 9 9 9 9 9 9 15 8 6 6 6 6 6 5 8
6 7 3 3 3 3 5 5 4 4 6 6 8 6 7 5 6 7 6 8 16 14 9 16 21 22 10 9 10 10 11 9 8 9 8 7 6 6 6 6 6 5 6 6
6 6 1 2 2 3 4 4 4 4 5 6 6 5 5 6 6 8 6 11 8 13 8 9 9 10 9 9 9 10 10 11 9 8 10 7 5 5 5 5 5 6 6 6
6 10 2 2 3 4 4 3 3 3 5 6 7 4 4 5 7 9 11 7 7 8 8 8 8 11 10 9 9 9 9 9 12 9 7 7 6 6 6 6 6 6 6 6
Wind_Direction
249 251 206 220 187 192 200 215 232 268 242 230 194 181 167 136 135 149 144 147 154 163 118 94 78 62 48 35 14 13 3 354 335 320 317 318 320 319 314 310 304 295 293 286
261 248 246 257 236 212 225 240 252 260 273 138 121 117 127 142 150 153 153 177 214 165 101 80 64 43 24 5 352 4 357 334 321 324 318 316 314 307 303 300 297 295 290 282
272 235 275 263 234 225 242 192 232 249 256 133 119 129 132 141 169 165 165 199 183 167 216 210 173 44 358 325 328 344 332 316 309 308 304 302 301 300 302 300 296 297 285 270
285 21 263 299 226 175 144 65 134 104 96 89 121 117 112 106 148 148 144 230 260 292 297 268 346 19 308 342 334 325 295 281 288 291 296 304 304 299 292 293 295 293 282 282
253 240 281 302 204 162 157 182 227 122 122 121 145 111 89 89 110 143 195 229 274 199 314 323 332 321 343 339 318 300 287 288 292 297 301 301 296 295 289 286 286 283 283 284
303 288 276 273 31 39 334 206 159 136 153 149 174 177 238 176 143 168 195 267 272 107 136 35 312 337 333 291 292 299 302 304 300 295 294 295 290 289 285 278 287 294 295 289
264 273 287 22 360 4 81 264 141 139 139 148 143 190 192 117 321 270 118 63 67 86 40 268 325 356 320 320 305 294 294 294 294 293 288 278 271 276 282 282 285 283 287 285
264 328 283 23 356 255 220 81 98 36 173 123 199 44 85 40 16 22 57 29 19 9 316 298 315 16 301 289 281 297 296 297 296 292 291 296 293 289 286 281 276 279 281 283
207 262 158 282 252 98 75 79 85 154 202 155 168 112 102 165 154 344 319 318 317 241 300 303 297 232 275 276 309 304 303 295 291 292 294 291 287 283 285 284 277 285 283 282
43 251 186 176 149 151 168 188 158 179 174 180 155 153 192 176 169 268 269 270 242 331 295 296 277 271 239 291 306 294 284 284 285 281 287 284 291 281 278 278 277 276 277 276
249 303 70 234 179 146 122 117 157 155 153 166 150 177 167 172 220 259 284 291 249 280 276 284 294 296 287 291 294 281 282 280 280 284 282 283 281 276 270 262 264 283 287 291
235 211 188 186 180 207 170 172 167 146 146 103 148 159 148 170 211 210 266 276 307 294 270 277 285 282 282 268 279 270 289 288 283 292 288 278 280 296 290 284 298 308 304 304
251 222 254 167 177 182 156 152 135 148 161 139 139 130 130 195 256 298 316 293 266 270 278 280 287 290 283 271 252 276 264 285 281 292 288 283 283 283 285 291 307 304 307 310
248 124 78 168 172 137 118 118 96 96 88 109 126 70 61 286 309 311 279 266 266 268 287 282 292 290 282 265 257 270 272 291 293 279 274 273 270 272 270 293 301 303 306 311
10 349 159 116 106 94 89 93 88 150 166 141 53 171 171 251 265 266 277 286 289 280 281 283 288 288 280 260 251 274 273 277 280 273 268 268 270 272 279 286 284 290 300 304
16 122 120 120 132 159 148 150 180 205 178 218 256 253 239 234 259 270 275 282 282 290 289 286 283 262 285 277 280 275 274 299 302 295 286 284 281 280 283 285 282 284 296 292
128 202 191 320 191 162 206 243 260 212 77 214 217 214 253 276 274 301 308 305 282 278 270 255 262 281 278 270 263 271 277 280 290 297 286 284 283 279 282 279 276 284 284 290
275 22 136 169 169 187 190 193 193 175 195 264 290 279 349 6 288 299 299 310 314 309 300 288 281 278 270 273 269 267 268 272 276 279 282 285 274 274 277 275 276 279 285 290
35 107 73 58 45 33 13 125 68 35 351 282 299 320 275 266 273 282 304 317 310 304 292 305 308 323 308 301 318 301 288 284 283 278 273 283 298 283 276 275 276 275 279 286
37 46 51 49 44 50 36 16 14 16 359 347 317 351 349 312 296 306 306 282 273 270 292 291 304 316 292 304 306 286 286 283 286 281 274 283 278 271 272 279 285 277 277 279
48 50 46 39 37 40 50 56 48 18 340 342 344 332 306 303 311 317 315 308 296 299 300 324 313 310 303 296 288 288 290 304 314 302 295 284 281 274 271 271 269 267 272 276
65 59 51 76 83 99 93 56 17 343 338 342 342 337 335 330 327 315 306 297 304 309 318 303 314 299 305 311 318 4 325 299 289 282 276 269 266 267 265 265 265 266 267 271
38 18 5 34 43 42 50 17 354 338 347 347 335 336 330 322 318 316 313 312 314 312 316 326 312 316 317 335 345 314 302 290 287 283 282 276 270 265 262 262 265 262 267 279
26 3 343 38 15 14 354 350 337 334 354 325 324 330 323 314 303 300 308 312 317 310 329 317 319 319 324 336 314 300 292 285 282 281 280 284 277 267 264 264 266 266 266 284
10 344 345 6 354 351 334 329 314 353 331 327 326 321 316 304 308 308 312 310 315 327 313 325 326 327 327 313 308 299 300 279 276 270 269 282 270 267 265 265 263 263 264 273
345 324 350 60 343 321 320 315 354 332 323 321 312 308 311 314 313 319 315 317 326 319 318 312 313 321 318 307 316 325 322 325 304 290 286 283 282 283 285 285 281 283 281 281
331 340 314 355 342 324 295 300 357 301 319 300 288 288 311 315 314 325 320 314 307 307 310 316 312 311 318 319 328 321 324 326 325 330 344 334 329 323 318 307 299 288 284 279